Location: ???????????
(55.5500°N, 39.4333°E)
Time: 22:24:52
(UTC+00:00)

USA 238 DEB - Pass Details

Date: 11 December 2025
Orbit: 883 x 1328 km, 63.4° (Epoch: 10 January)

Event Time Altitude Azimuth Distance (km) Brightness Sun altitude
Rises 16:46:15 0° 229° (SW) 3,572 7.0 -31.5°
Reaches altitude 10° 16:48:40 10° 230° (SW) 2,673 6.3 -31.9°
Enters shadow 16:53:55 66° 232° (SW) 1,093 3.7 -32.6°
